Weather Roundup
Issued by NWS Corpus Christi, TX

Current Version | Previous Version | Text Only | Print | Product List | Glossary On
Versions: 1 2 3 4 5 6 7 8 9 10 11 12 13 14 15 16 17 18 19 20 21 22 23 24 25 26 27 28 29 30 31 32 33 34 35 36 37 38 39 40 41 42 43 44 45 46 47 48 49 50
215
ASUS44 KCRP 302110
HRRCRP

SOUTH TEXAS REGIONAL WEATHER ROUNDUP
NATIONAL WEATHER SERVICE CORPUS CHRISTI TX
400 PM CDT SAT JUL 30 2016


TXZ229>244-302200-
...CORPUS CHRISTI AREA OBSERVATIONS...

CITY           SKY/WX    TMP DP  RH WIND       PRES   REMARKS
CORPUS CHRISTI PTSUNNY   94  74  52 SE17G26   29.95F HX 104
NAS CORPUS CHR MOSUNNY   91  75  59 SE18      29.97F HX 101
ROCKPORT       SUNNY     92  76  59 SE12      29.97F HX 104
KINGSVILLE NAS MOSUNNY   97  78  54 SE18G25   29.94F HX 114
ALICE          CLOUDY    92  74  55 SE18      29.94S HX 101
FALFURRIAS     MOSUNNY   98  69  39 SE14G20   29.93F HX 104
$$

...VICTORIA AREA OBSERVATIONS...

CITY           SKY/WX    TMP DP  RH WIND       PRES   REMARKS
VICTORIA       CLOUDY    94  71  47 S13       29.95F HX 101
BEEVILLE       PTSUNNY   92  75  56 S10       29.95F HX 102
PLEASANTON     MOSUNNY   97  64  33 SE10      29.96F HX  99
SAN ANTONIO    MOSUNNY   95  69  42 SE10      29.98F HX 100
$$

...LAREDO AREA OBSERVATIONS...

CITY           SKY/WX    TMP DP  RH WIND       PRES   REMARKS
LAREDO         MOSUNNY  101  67  32 S13       29.91F HX 106
COTULLA        MOSUNNY   96  66  37 SE12      29.93F HX  99
DEL RIO        MOSUNNY   98  66  34 SE18G26   29.91F HX 101
MCALLEN        MOSUNNY  100  69  36 SE20G31   29.92F HX 106
HEBBRONVILLE   MOSUNNY   99  59  26 S10       29.94F HX  99
$$

...OTHER TEXAS OBSERVATIONS...

CITY           SKY/WX    TMP DP  RH WIND       PRES   REMARKS
BROWNSVILLE    MOSUNNY   94  74  52 SE17G25   29.96F HX 104
HOUSTON        PTSUNNY   95  70  44 VRB5      29.96F HX 101
COL. STATION   SUNNY     95  69  42 W8        29.96F HX 100
AUSTIN         MOSUNNY   94  69  44 S9G18     29.97F HX  99
WACO           MOSUNNY   98  64  32 S9        29.94F HX 100
FORT WORTH     MOSUNNY   98  67  36 S13G22    29.92F HX 102
WICHITA FALLS  SUNNY    100  63  29 S18       29.89F HX 102
LUBBOCK        PTSUNNY   93  59  31 S20G26    30.03F HX  92
EL PASO        MOSUNNY   93  57  29 SW10      30.00F HX  91
$$

...MARINE OBSERVATIONS...

STATION/POSITION TIME  SKY/WX   TEMP    WIND        PRES    VSBY  WAVE   SWELL
                                AIR SEA DIR/SP/G                  HT/PER HT/PER
                 (UTC)          (F)     (DEG/KT/KT) (MB)    (MI)  (FT/S) (FT/S)
PORT ARANSAS     2100            85 90  150/ 14/ 16 1015.3F
BUOY 90 E PORT A 2050            86 88  160/  6/  8 1016.1F         2/ 6   2/ 6
BUOY 45 SE BAFFI 2050            85 86  160/ 12/ 14 1014.8F         2/ 5
BUOY 200 E PT IS 2050            86 88  190/  6/  6 1015.4F         2/ 5   2/ 5
BUOY 15 E GALVES 1950            86 89  200/  6/  8 1016.5          2/ 8   2/ 8
$$




USA.gov is the U.S. government's official web portal to all federal, state and local government web resources and services.